Regional Weather Roundup
Issued by NWS Burlington, VT

Home | Current Version | Previous Version | Text Only | Print | Product List | Glossary On
Versions: 1 2 3 4 5 6 7 8 9 10 11 12 13 14 15 16 17 18 19 20 21 22 23 24 25 26 27 28 29 30 31 32 33 34 35 36 37 38 39 40 41 42 43 44 45 46 47 48 49 50
000
ASUS41 KBTV 211230
RWRBTV
VERMONT REGIONAL WEATHER ROUNDUP
NATIONAL WEATHER SERVICE BURLINGTON VT
800 AM EDT TUE APR 21 2015

NOTE: "FAIR" INDICATES FEW OR NO CLOUDS BELOW 12,000 FEET WITH NO
SIGNIFICANT WEATHER AND/OR OBSTRUCTIONS TO VISIBILITY.

* THESE REPORTS ARE NOT UNDER NWS QUALITY CONTROL AND/OR DO NOT
  REPORT WEATHER SUCH AS PRECIPITATION AND FOG.

VTZ001>019-211300-
_____VERMONT_____


CITY           SKY/WX    TMP DP  RH WIND       PRES   REMARKS
BURLINGTON     CLOUDY    49  46  90 SW8       29.53R
6HR MIN TEMP:  48; 6HR MAX TEMP:  52; 6HR PCP:  0.21;

MONTPELIER     CLOUDY    44  43  96 SE7       29.58F FOG
6HR MIN TEMP:  42; 6HR MAX TEMP:  45; 6HR PCP:  0.23;

MORRISVILLE    CLOUDY    46  44  93 S5        29.55F
6HR MIN TEMP:  45; 6HR MAX TEMP:  46; 6HR PCP:  0.08;

ST. JOHNSBURY*   N/A     46  44  93 MISG      29.54S
6HR MIN TEMP:  45; 6HR MAX TEMP:  50; 6HR PCP:  0.29;

LYNDONVILLE*   RAIN      44  41  88 CALM      29.56S
6HR MIN TEMP:  44; 6HR MAX TEMP:  50;

MIDDLEBURY*    CLOUDY    49  49 100 S5        29.55R
6HR MIN TEMP:  48; 6HR MAX TEMP:  51; 6HR PCP:  0.37;

RUTLAND*       CLOUDY    48  43  81 S9        29.54F
6HR MIN TEMP:  45; 6HR MAX TEMP:  46; 6HR PCP:  0.30;

SPRINGFIELD    CLOUDY    47  45  93 N3        29.56S
6HR MIN TEMP:  44; 6HR MAX TEMP:  47; 6HR PCP:  0.45;

HIGHGATE*      CLOUDY    46  46  97 CALM      29.52R
6HR MIN TEMP:  47; 6HR MAX TEMP:  51;

NEWPORT*       RAIN      44  43  96 CALM      29.55F
6HR MIN TEMP:  43; 6HR MAX TEMP:  49;

BENNINGTON     LGT RAIN  49  47  93 SW3       29.56R FOG
6HR MIN TEMP:  47; 6HR MAX TEMP:  53; 6HR PCP:  0.39;

SUTTON*          N/A     41 N/A N/A MISG        N/A
GALLUP MILLS*    N/A     41 N/A N/A MISG        N/A
MT. MANSFIELD*   N/A     37 N/A N/A CALM        N/A

_____LAKE CHAMPLAIN_____


CITY           SKY/WX    TMP DP  RH WIND       PRES   REMARKS
BURTON ISLAND*   N/A     45  43  93 S9          N/A
COLCHESTER RF*   N/A     45  45 100 S15         N/A
DIAMOND ISL*     N/A     46  46 100 S8          N/A

$$

NYZ007-026>031-035-052-083-211300-
_____NORTHERN NEW YORK_____


CITY           SKY/WX    TMP DP  RH WIND       PRES   REMARKS
PLATTSBURGH      N/A     46  46 100 CALM      29.52S
6HR MIN TEMP:  45; 6HR MAX TEMP:  47; 6HR PCP:  0.19;

SARANAC LAKE   LGT RAIN  44  43  96 SW9       29.53R
6HR MIN TEMP:  45; 6HR MAX TEMP:  49; 6HR PCP:  0.40;

MASSENA        LGT RAIN  48  44  86 SW16      29.53S
6HR MIN TEMP:  48; 6HR MAX TEMP:  51; 6HR PCP:  0.07;

OGDENSBURG*    SUNNY     46  43  87 SW13      29.55R
POTSDAM*       CLOUDY    46  45  93 SW16      29.55R
STARK FALLS*     N/A     43 N/A N/A SW12        N/A
WATERTOWN      CLOUDY    46  40  79 SW7       29.58S
6HR MIN TEMP:  45; 6HR MAX TEMP:  54; 6HR PCP:  0.01;

FT DRUM        DRIZZLE   45  39  81 W7        29.58R
6HR MIN TEMP:  45; 6HR MAX TEMP:  52; 6HR PCP: TRACE;

ALBANY         CLOUDY    51  48  89 W9        29.58R
6HR MIN TEMP:  50; 6HR MAX TEMP:  52; 6HR PCP:  0.46;

GLENS FALLS    CLOUDY    49  47  93 CALM      29.56R
6HR MIN TEMP:  47; 6HR MAX TEMP:  50; 6HR PCP:  0.46;


$$
NHZ002-005-011-211300-
_____NEW HAMPSHIRE_____


CITY           SKY/WX    TMP DP  RH WIND       PRES   REMARKS
LEBANON        CLOUDY    47  45  93 CALM      29.56S FOG
6HR MIN TEMP:  45; 6HR MAX TEMP:  47; 6HR PCP:  0.40;

KEENE          CLOUDY    48  45  87 CALM      29.55F
6HR MIN TEMP:  46; 6HR MAX TEMP:  48; 6HR PCP:  0.32;

MT WASHINGTON  LGT RAIN  37  37 100 S41G52      N/A  VSB 1/16
6HR MIN TEMP:  27; 6HR MAX TEMP:  38; 6HR PCP:  0.26;

PLYMOUTH       DRIZZLE   46  46 100 CALM      29.57S
6HR MIN TEMP:  44; 6HR MAX TEMP:  46; 6HR PCP:  0.34;

WHITEFIELD     CLOUDY    45  40  82 E10       29.55S
6HR MIN TEMP:  45; 6HR MAX TEMP:  52; 6HR PCP:  0.14;


$$

_____REGIONAL QUEBEC LOCATIONS_____


CITY           SKY/WX    TMP DP  RH WIND       PRES   REMARKS
MONTREAL       LGT RAIN  48  48 100 SW12      29.50S
QUEBEC CITY    LGT RAIN  43  39  87 E15G22    29.66F
SHERBROOKE     LGT RAIN  45  43  93 E10       29.55F

_____REGIONAL ONTARIO LOCATIONS_____


CITY           SKY/WX    TMP DP  RH WIND       PRES   REMARKS
OTTAWA         LGT RAIN  46  46 100 S12G17    29.49S

______KEY______
VSB  - VISIBILITY IN MILES
WCI  - WIND CHILL INDEX
HX   - HEAT INDEX
$$
NNNN


USA.gov is the U.S. government's official web portal to all federal, state and local government web resources and services.